Regional Weather Roundup
Issued by NWS Columbia, SC

Home | Current Version | Previous Version | Text Only | Print | Product List | Glossary On
Versions: 1 2 3 4 5 6 7 8 9 10 11 12 13 14 15 16 17 18 19 20 21 22 23 24 25 26 27 28 29 30 31 32 33 34 35 36 37 38 39 40 41 42 43 44 45 46 47 48 49 50
000
ASUS42 KCAE 020110
RWRCAE
REGIONAL WEATHER ROUNDUP
NATIONAL WEATHER SERVICE COLUMBIA SC
900 PM EDT TUE SEP 01 2015

NOTE: "FAIR" INDICATES FEW OR NO CLOUDS BELOW 12,000 FEET WITH NO
SIGNIFICANT WEATHER AND/OR OBSTRUCTIONS TO VISIBILITY.

NOT ALL STATIONS ARE QUALITY CONTROLLED BY THE NATIONAL
WEATHER SERVICE. USE DATA WITH CAUTION...ESPECIALLY
DEWPOINT OBSERVATIONS.

SCZ001>056-GAZ040-063>065-077-020200-
...UPSTATE SOUTH CAROLINA...

CITY           SKY/WX    TMP DP  RH WIND       PRES   REMARKS
ANDERSON       CLEAR     78  67  68 CALM      30.09S
LIBERTY        CLEAR     75  70  85 CALM      30.10R
SPARTANBURG    CLEAR     81  68  65 SW3       30.09R
CLEMSON        CLEAR     80  64  58 CALM      30.11R
GREENVILLE     CLEAR     82  66  58 CALM      30.11S
GREENWOOD      CLEAR     76  70  82 CALM      30.09S
GREER          CLEAR     80  66  62 SW7       30.08S
ROCK HILL      CLOUDY    80  68  66 CALM      30.09R
CHESTER        CLEAR     79  66  65 SW3       30.09R
LAURENS        CLEAR     79  75  89 CALM      30.09R


...CENTRAL SOUTH CAROLINA...

CITY           SKY/WX    TMP DP  RH WIND       PRES   REMARKS
COLUMBIA APT   PTCLDY    82  70  66 W3        30.07R
COLUMBIA OWENS PTCLDY    82  71  69 CALM      30.07S
DARLINGTON     PTCLDY    79  72  78 CALM      30.07S
FLORENCE       PTCLDY    81  72  74 CALM      30.06R
MCENTIRE ANGB  PTCLDY    76  72  87 CALM      30.07R
ORANGEBURG     MOCLDY    79  72  79 S5        30.07R
SUMTER SHAW    PTCLDY    81  71  72 S3        30.05R
NEWBERRY       CLEAR     75  68  78 S3        30.11S
AIKEN          FAIR      79  66  65 CALM      30.11S
BARNWELL       FAIR      82  73  74 CALM      30.08R
MANNING        FAIR      75  68  78 CALM      30.08R
CAMDEN         FAIR      81  72  74 CALM      30.08R
LANCASTER      PTCLDY    81  68  65 CALM      30.08R
WINNSBORO      CLEAR     81  68  65 CALM      30.08R


...EASTERN AND COASTAL SOUTH CAROLINA...

CITY           SKY/WX    TMP DP  RH WIND       PRES   REMARKS
MYRTLE BEACH   CLEAR     81  70  69 S6        30.09R
N MYRTLE BCH   PTCLDY    80  72  76 SW7       30.07R
CONWAY         FAIR      75  75 100 CALM      30.07S
MARION         FAIR      79  72  78 CALM      30.07R
HARTSVILLE     FAIR      77  70  78 CALM      30.07R
FLORENCE       PTCLDY    81  72  74 CALM      30.06R
DARLINGTON     PTCLDY    79  72  78 CALM      30.07S
CHARLESTON APT CLOUDY    81  74  79 S5        30.08R
MOUNT PLEASANT LGT RAIN  79  75  89 CALM      30.08R
WALTERBORO     MOCLDY    81  73  78 CALM      30.08S
BEAUFORT       MOCLDY    80  76  87 CALM      30.08R
HILTON HEAD    MOCLDY    79  75  89 CALM      30.09R


...EASTERN GEORGIA...

CITY           SKY/WX    TMP DP  RH WIND       PRES   REMARKS
AUGUSTA BUSH F PTCLDY    75  72  90 CALM      30.06R
AUGUSTA DANIEL PTCLDY    84  69  60 CALM      30.08R
THOMSON        CLEAR     77  75  93 CALM      30.12S
WASHINGTON     FAIR      79  77  94 CALM      30.08S
SYLVANIA       MOCLDY    81  78  90 CALM      30.08S
STATESBORO     CLOUDY    81  78  90 SE3       30.07S
SAVANNAH       CLOUDY    80  74  81 SE6       30.07S


...SOUTHERN NORTH CAROLINA...

CITY           SKY/WX    TMP DP  RH WIND       PRES   REMARKS
CHARLOTTE      PTCLDY    83  65  54 S6        30.09R
MONROE         PTCLDY    78  70  76 CALM      30.08R
WADESBORO      PTCLDY    77  72  84 CALM      30.06S
ROCKINGHAM     PTCLDY    82  69  64 S3        30.07R
RUTHERFORDTON  PTCLDY    80  66  62 CALM      30.10S
ASHEVILLE      CLEAR     75  67  76 CALM      30.17R

$$



USA.gov is the U.S. government's official web portal to all federal, state and local government web resources and services.